SCP
0 0 0 0 0 0 0 0 0 0 0 0 0 0 0 0 0 0 0 0 0 0
0 0 0 0 0 0 0 0 0 0 0 0 0 0 0 0 0 0 0 0 0 0
0 0 0 0 0 0 0 0 0 0 0 0 0 0 0 0 0 0 0 0 0 0
0 0 0 0 0 0 0 0 0 0 0 0 0 0 0 0 0 0 0 0 0 0
0 0 0 0 0 0 0 0 0 0 0 0 0 0 0 0 0 0 0 0 0 0
0 0 0 0 0 0 0 0 0 0 0 0 0 0 0 0 0 0 0 0 0 0
0 0 0 0 0 0 0 0 0 0 0 0 0 0 0 0 0 0 0 0 0 0
0 0 0 0 0 0 0 0 0 0 0 0 0 0 0 0 0 0 0 0 0 0
0 0 0 0 0 0 0 0 0 0 0 0 0 0 0 0 0 0 0 0 0 0
0 0 0 0 0 0 0 0 0 0 0 0 0 0 0 0 0 0 0 0 0 0
0 0 0 0 0 0 0 0 0 0 0 0 0 0 0 0 0 0 0 0 0 0
0 0 0 0 0 0 0 0 0 0 0 0 0 0 0 0 0 0 0 0 0 0
0 0 0 0 0 0 0 0 0 0 0 0 0 0 0 0 0 0 0 0 0 0
0 0 0 0 0 0 0 0 0 0 0 0 0 0 0 0 0 0 0 0 0 0
Wind_Speed_500mb
68 72 70 69 67 64 65 58 48 44 45 46 50 55 58 60 60 61 61 61 58 58
71 71 71 65 59 57 51 51 50 50 49 47 45 47 51 56 57 57 59 61 59 58
74 70 68 66 65 60 55 53 58 52 49 46 48 47 46 48 49 52 51 63 58 53
76 66 64 63 61 59 59 59 61 55 53 43 46 43 48 46 49 52 54 50 53 54
53 55 57 56 59 57 58 56 57 51 50 50 53 52 51 50 54 47 54 42 44 47
45 49 52 56 56 59 54 52 46 47 55 45 42 48 44 42 43 47 53 52 50 51
30 37 40 44 45 43 42 41 39 35 30 32 28 22 23 28 31 30 30 28 28 27
16 19 22 23 23 24 24 26 27 23 24 22 16 14 13 13 13 13 14 16 19 21
18 19 19 20 21 22 26 25 23 22 19 15 12 9 7 7 9 10 13 16 19 19
21 22 22 22 21 22 21 21 20 18 15 12 10 8 9 11 10 11 12 15 17 20
19 21 21 22 22 22 21 20 20 19 17 15 13 13 13 12 11 11 13 15 17 19
20 21 22 22 22 23 25 25 24 22 21 20 17 15 13 11 10 12 14 16 17 19
26 27 27 26 25 26 27 28 27 26 23 20 17 15 13 13 14 18 18 20 21 23
30 30 30 30 29 29 29 29 25 21 18 16 14 13 14 17 19 21 21 22 25 29
Wind_Direction_500mb
252 254 252 251 251 251 251 258 265 263 260 256 253 251 252 253 254 256 257 258 260 264
252 251 254 256 251 251 255 257 260 259 252 252 252 250 254 255 255 257 258 259 263 267
248 249 251 254 254 256 254 253 252 242 239 246 249 249 251 255 257 257 260 270 262 266
239 240 246 248 248 245 246 249 250 249 248 241 247 248 255 251 258 264 263 264 267 269
235 235 233 232 233 240 243 244 247 250 253 246 243 248 257 257 257 258 263 257 263 272
232 230 226 229 233 242 243 241 238 243 247 240 238 242 245 249 255 255 259 261 256 258
233 236 236 234 235 235 235 235 235 237 233 230 234 237 238 244 247 250 253 254 251 257
204 209 212 213 213 213 211 210 207 201 206 205 201 210 221 234 239 245 254 254 250 258
157 158 160 161 166 171 174 174 176 178 186 182 181 192 226 256 270 276 271 269 270 272
159 160 161 163 168 175 174 175 177 179 185 191 199 222 254 263 265 270 278 279 279 279
186 184 187 188 194 196 199 201 204 207 215 223 237 256 267 272 279 281 281 287 293 295
227 220 214 218 221 226 227 227 229 232 234 241 245 250 253 258 273 284 292 297 300 296
250 243 237 232 233 236 236 236 236 236 233 232 235 233 246 267 280 289 297 301 299 299
258 254 250 246 242 240 236 232 224 220 219 220 226 245 267 279 286 291 296 301 304 306
Wind_Speed_850mb
68 72 70 69 67 64 65 58 48 44 45 46 50 55 58 60 60 61 61 61 58 58
71 71 71 65 59 57 51 51 50 50 49 47 45 47 51 56 57 57 59 61 59 58
74 70 68 66 65 60 55 53 58 52 49 46 48 47 46 48 49 52 51 63 58 53
76 66 64 63 61 59 59 59 61 55 53 43 46 43 48 46 49 52 54 50 53 54
53 55 57 56 59 57 58 56 57 51 50 50 53 52 51 50 54 47 54 42 44 47
45 49 52 56 56 59 54 52 46 47 55 45 42 48 44 42 43 47 53 52 50 51
30 37 40 44 45 43 42 41 39 35 30 32 28 22 23 28 31 30 30 28 28 27
16 19 22 23 23 24 24 26 27 23 24 22 16 14 13 13 13 13 14 16 19 21
18 19 19 20 21 22 26 25 23 22 19 15 12 9 7 7 9 10 13 16 19 19
21 22 22 22 21 22 21 21 20 18 15 12 10 8 9 11 10 11 12 15 17 20
19 21 21 22 22 22 21 20 20 19 17 15 13 13 13 12 11 11 13 15 17 19
20 21 22 22 22 23 25 25 24 22 21 20 17 15 13 11 10 12 14 16 17 19
26 27 27 26 25 26 27 28 27 26 23 20 17 15 13 13 14 18 18 20 21 23
30 30 30 30 29 29 29 29 25 21 18 16 14 13 14 17 19 21 21 22 25 29
Wind_Direction_850mb
252 254 252 251 251 251 251 258 265 263 260 256 253 251 252 253 254 256 257 258 260 264
252 251 254 256 251 251 255 257 260 259 252 252 252 250 254 255 255 257 258 259 263 267
248 249 251 254 254 256 254 253 252 242 239 246 249 249 251 255 257 257 260 270 262 266
239 240 246 248 248 245 246 249 250 249 248 241 247 248 255 251 258 264 263 264 267 269
235 235 233 232 233 240 243 244 247 250 253 246 243 248 257 257 257 258 263 257 263 272
232 230 226 229 233 242 243 241 238 243 247 240 238 242 245 249 255 255 259 261 256 258
233 236 236 234 235 235 235 235 235 237 233 230 234 237 238 244 247 250 253 254 251 257
204 209 212 213 213 213 211 210 207 201 206 205 201 210 221 234 239 245 254 254 250 258
157 158 160 161 166 171 174 174 176 178 186 182 181 192 226 256 270 276 271 269 270 272
159 160 161 163 168 175 174 175 177 179 185 191 199 222 254 263 265 270 278 279 279 279
186 184 187 188 194 196 199 201 204 207 215 223 237 256 267 272 279 281 281 287 293 295
227 220 214 218 221 226 227 227 229 232 234 241 245 250 253 258 273 284 292 297 300 296
250 243 237 232 233 236 236 236 236 236 233 232 235 233 246 267 280 289 297 301 299 299
258 254 250 246 242 240 236 232 224 220 219 220 226 245 267 279 286 291 296 301 304 306